Time,TemperatureF,DewpointF,PressureIn,WindDirection,WindDirectionDegrees,WindSpeedMPH,WindSpeedGustMPH,Humidity,HourlyPrecipIn,Conditions,Clouds,dailyrainin,SoftwareType,DateUTC
2013-09-07 00:01:00,66.2,63.2,30.07,SSW,209,0.0,1.0,90,0.00,,,0.00,Wunderground v.1.15,2013-09-07 05:01:00,
2013-09-07 00:06:00,66.2,63.2,30.07,ESE,110,0.0,1.0,90,0.00,,,0.00,Wunderground v.1.15,2013-09-07 05:06:00,
2013-09-07 00:12:00,66.1,63.1,30.07,South,185,0.0,1.0,90,0.00,,,0.00,Wunderground v.1.15,2013-09-07 05:12:00,
2013-09-07 00:17:00,66.0,63.3,30.07,South,185,0.0,1.0,91,0.00,,,0.00,Wunderground v.1.15,2013-09-07 05:17:00,
2013-09-07 00:23:00,65.9,63.2,30.07,South,185,0.0,1.0,91,0.00,,,0.00,Wunderground v.1.15,2013-09-07 05:23:00,
2013-09-07 00:28:00,65.9,63.2,30.07,South,185,0.0,1.0,91,0.00,,,0.00,Wunderground v.1.15,2013-09-07 05:28:00,
2013-09-07 00:33:00,65.9,63.2,30.07,South,185,0.0,1.0,91,0.00,,,0.00,Wunderground v.1.15,2013-09-07 05:33:00,
2013-09-07 00:39:00,65.9,63.2,30.07,WSW,245,0.0,1.0,91,0.00,,,0.00,Wunderground v.1.15,2013-09-07 05:39:00,
2013-09-07 00:44:00,65.8,63.1,30.07,SSW,198,0.0,1.0,91,0.00,,,0.00,Wunderground v.1.15,2013-09-07 05:44:00,
2013-09-07 00:50:00,65.8,63.1,30.07,SW,219,0.0,1.0,91,0.00,,,0.00,Wunderground v.1.15,2013-09-07 05:50:00,
2013-09-07 00:55:00,65.6,62.9,30.07,SW,219,0.0,1.0,91,0.00,,,0.00,Wunderground v.1.15,2013-09-07 05:55:00,
2013-09-07 01:00:00,65.5,63.1,30.07,SW,219,0.0,1.0,92,0.00,,,0.00,Wunderground v.1.15,2013-09-07 06:00:00,
2013-09-07 01:06:00,65.4,63.0,30.07,SW,219,0.0,1.0,92,0.00,,,0.00,Wunderground v.1.15,2013-09-07 06:06:00,
2013-09-07 01:11:00,65.3,62.9,30.07,SW,219,0.0,1.0,92,0.00,,,0.00,Wunderground v.1.15,2013-09-07 06:11:00,
2013-09-07 01:17:00,65.1,63.0,30.07,SW,219,0.0,1.0,93,0.00,,,0.00,Wunderground v.1.15,2013-09-07 06:17:00,
2013-09-07 01:22:00,65.0,62.9,30.07,SW,219,0.0,1.0,93,0.00,,,0.00,Wunderground v.1.15,2013-09-07 06:22:00,
2013-09-07 01:27:00,64.8,63.0,30.07,SW,219,0.0,1.0,94,0.00,,,0.00,Wunderground v.1.15,2013-09-07 06:27:00,
2013-09-07 01:33:00,64.6,62.8,30.06,WSW,243,0.0,1.0,94,0.00,,,0.00,Wunderground v.1.15,2013-09-07 06:33:00,
2013-09-07 01:38:00,64.5,62.7,30.06,WSW,243,0.0,1.0,94,0.00,,,0.00,Wunderground v.1.15,2013-09-07 06:38:00,
2013-09-07 01:43:00,64.4,62.3,30.06,WSW,242,0.0,1.0,93,0.00,,,0.00,Wunderground v.1.15,2013-09-07 06:43:00,
2013-09-07 01:49:00,64.3,62.2,30.06,WSW,243,0.0,1.0,93,0.00,,,0.00,Wunderground v.1.15,2013-09-07 06:49:00,
2013-09-07 01:54:00,64.2,62.1,30.06,WSW,243,0.0,1.0,93,0.00,,,0.00,Wunderground v.1.15,2013-09-07 06:54:00,
2013-09-07 01:59:00,64.1,62.0,30.06,WSW,242,0.0,1.0,93,0.00,,,0.00,Wunderground v.1.15,2013-09-07 06:59:00,
2013-09-07 02:05:00,63.9,62.1,30.06,WSW,243,0.0,1.0,94,0.00,,,0.00,Wunderground v.1.15,2013-09-07 07:05:00,
2013-09-07 02:10:00,63.8,62.0,30.06,WSW,242,0.0,1.0,94,0.00,,,0.00,Wunderground v.1.15,2013-09-07 07:10:00,
2013-09-07 02:15:00,63.7,61.9,30.06,WSW,243,0.0,1.0,94,0.00,,,0.00,Wunderground v.1.15,2013-09-07 07:15:00,
2013-09-07 02:21:00,63.8,62.3,30.06,WSW,243,0.0,1.0,95,0.00,,,0.00,Wunderground v.1.15,2013-09-07 07:21:00,
2013-09-07 02:26:00,63.8,62.3,30.06,WSW,242,0.0,1.0,95,0.00,,,0.00,Wunderground v.1.15,2013-09-07 07:26:00,
2013-09-07 02:32:00,63.7,62.2,30.06,WSW,243,0.0,1.0,95,0.00,,,0.00,Wunderground v.1.15,2013-09-07 07:32:00,
2013-09-07 02:37:00,63.7,62.2,30.06,WSW,242,0.0,1.0,95,0.00,,,0.00,Wunderground v.1.15,2013-09-07 07:37:00,
2013-09-07 02:42:00,63.7,62.2,30.06,WSW,243,0.0,1.0,95,0.00,,,0.00,Wunderground v.1.15,2013-09-07 07:42:00,
2013-09-07 02:48:00,63.8,62.3,30.06,WSW,242,0.0,1.0,95,0.00,,,0.00,Wunderground v.1.15,2013-09-07 07:48:00,
2013-09-07 02:53:00,63.7,62.2,30.06,WSW,240,0.0,1.0,95,0.00,,,0.00,Wunderground v.1.15,2013-09-07 07:53:00,
2013-09-07 02:59:00,63.6,62.1,30.06,WSW,240,0.0,1.0,95,0.00,,,0.00,Wunderground v.1.15,2013-09-07 07:59:00,
2013-09-07 03:04:00,63.6,62.1,30.06,WSW,240,0.0,1.0,95,0.00,,,0.00,Wunderground v.1.15,2013-09-07 08:04:00,
2013-09-07 03:09:00,63.4,61.9,30.06,WSW,240,0.0,1.0,95,0.00,,,0.00,Wunderground v.1.15,2013-09-07 08:09:00,
2013-09-07 03:15:00,63.3,61.8,30.06,WSW,238,0.0,1.0,95,0.00,,,0.00,Wunderground v.1.15,2013-09-07 08:15:00,
2013-09-07 03:20:00,63.3,61.8,30.05,SE,144,0.0,1.0,95,0.00,,,0.00,Wunderground v.1.15,2013-09-07 08:20:00,
2013-09-07 03:25:00,63.2,62.0,30.06,SSW,195,0.0,1.0,96,0.00,,,0.00,Wunderground v.1.15,2013-09-07 08:25:00,
2013-09-07 03:31:00,63.1,61.9,30.06,SSW,195,0.0,1.0,96,0.00,,,0.00,Wunderground v.1.15,2013-09-07 08:31:00,
2013-09-07 03:36:00,63.0,61.8,30.05,SSW,195,0.0,1.0,96,0.00,,,0.00,Wunderground v.1.15,2013-09-07 08:36:00,
2013-09-07 03:41:00,62.9,61.7,30.05,SSW,195,0.0,1.0,96,0.00,,,0.00,Wunderground v.1.15,2013-09-07 08:41:00,
2013-09-07 03:47:00,62.9,61.7,30.05,SSW,195,0.0,1.0,96,0.00,,,0.00,Wunderground v.1.15,2013-09-07 08:47:00,
2013-09-07 03:52:00,62.7,61.5,30.05,SSW,195,0.0,1.0,96,0.00,,,0.00,Wunderground v.1.15,2013-09-07 08:52:00,
2013-09-07 03:57:00,62.7,61.5,30.05,SSW,195,0.0,1.0,96,0.00,,,0.00,Wunderground v.1.15,2013-09-07 08:57:00,
2013-09-07 04:04:00,62.7,61.5,30.05,SSW,195,0.0,1.0,96,0.00,,,0.00,Wunderground v.1.15,2013-09-07 09:04:00,
2013-09-07 04:09:00,62.8,61.6,30.05,SSW,195,0.0,1.0,96,0.00,,,0.00,Wunderground v.1.15,2013-09-07 09:09:00,
2013-09-07 04:15:00,62.7,61.5,30.05,SSW,195,0.0,1.0,96,0.00,,,0.00,Wunderground v.1.15,2013-09-07 09:15:00,
2013-09-07 04:20:00,62.5,61.3,30.05,SSW,195,0.0,1.0,96,0.00,,,0.00,Wunderground v.1.15,2013-09-07 09:20:00,
2013-09-07 04:25:00,62.2,61.0,30.06,SSW,195,0.0,1.0,96,0.00,,,0.00,Wunderground v.1.15,2013-09-07 09:25:00,
2013-09-07 04:31:00,62.1,60.9,30.06,SSW,195,0.0,1.0,96,0.00,,,0.00,Wunderground v.1.15,2013-09-07 09:31:00,
2013-09-07 04:36:00,62.2,61.0,30.06,SSW,195,0.0,1.0,96,0.00,,,0.00,Wunderground v.1.15,2013-09-07 09:36:00,
2013-09-07 04:41:00,62.3,61.1,30.06,SSW,195,0.0,1.0,96,0.00,,,0.00,Wunderground v.1.15,2013-09-07 09:41:00,
2013-09-07 04:47:00,62.3,61.1,30.06,SSW,195,0.0,1.0,96,0.00,,,0.00,Wunderground v.1.15,2013-09-07 09:47:00,
2013-09-07 04:52:00,62.2,61.0,30.06,SSW,195,0.0,1.0,96,0.00,,,0.00,Wunderground v.1.15,2013-09-07 09:52:00,
2013-09-07 04:58:00,62.1,60.9,30.06,SSW,195,0.0,1.0,96,0.00,,,0.00,Wunderground v.1.15,2013-09-07 09:58:00,
2013-09-07 05:03:00,62.1,60.9,30.06,SSW,195,0.0,1.0,96,0.00,,,0.00,Wunderground v.1.15,2013-09-07 10:03:00,
2013-09-07 05:08:00,62.0,60.8,30.06,SSW,195,0.0,1.0,96,0.00,,,0.00,Wunderground v.1.15,2013-09-07 10:08:00,
2013-09-07 05:14:00,62.0,60.8,30.06,SSW,195,0.0,1.0,96,0.00,,,0.00,Wunderground v.1.15,2013-09-07 10:14:00,
2013-09-07 05:19:00,61.9,60.7,30.07,SSW,195,0.0,1.0,96,0.00,,,0.00,Wunderground v.1.15,2013-09-07 10:19:00,
2013-09-07 05:24:00,61.9,60.7,30.06,SSW,195,0.0,1.0,96,0.00,,,0.00,Wunderground v.1.15,2013-09-07 10:24:00,
2013-09-07 05:30:00,61.8,60.6,30.06,SSW,195,0.0,1.0,96,0.00,,,0.00,Wunderground v.1.15,2013-09-07 10:30:00,
2013-09-07 05:35:00,61.7,60.5,30.06,SSW,195,0.0,1.0,96,0.00,,,0.00,Wunderground v.1.15,2013-09-07 10:35:00,
2013-09-07 05:40:00,61.6,60.4,30.07,SSW,195,0.0,1.0,96,0.00,,,0.00,Wunderground v.1.15,2013-09-07 10:40:00,
2013-09-07 05:46:00,61.4,60.2,30.07,SSW,195,0.0,1.0,96,0.00,,,0.00,Wunderground v.1.15,2013-09-07 10:46:00,
2013-09-07 05:51:00,61.4,60.2,30.07,SSW,195,0.0,1.0,96,0.00,,,0.00,Wunderground v.1.15,2013-09-07 10:51:00,
2013-09-07 05:57:00,61.4,60.5,30.07,SSW,195,0.0,1.0,97,0.00,,,0.00,Wunderground v.1.15,2013-09-07 10:57:00,
2013-09-07 06:02:00,61.4,60.5,30.07,SSW,195,0.0,1.0,97,0.00,,,0.00,Wunderground v.1.15,2013-09-07 11:02:00,
2013-09-07 06:07:00,61.4,60.5,30.07,SSW,195,0.0,1.0,97,0.00,,,0.00,Wunderground v.1.15,2013-09-07 11:07:00,
2013-09-07 06:13:00,61.5,60.6,30.07,SSW,195,0.0,1.0,97,0.00,,,0.00,Wunderground v.1.15,2013-09-07 11:13:00,
2013-09-07 06:18:00,61.5,60.6,30.08,SSW,195,0.0,1.0,97,0.00,,,0.00,Wunderground v.1.15,2013-09-07 11:18:00,
2013-09-07 06:23:00,61.7,60.8,30.08,SSW,200,0.0,1.0,97,0.00,,,0.00,Wunderground v.1.15,2013-09-07 11:23:00,
2013-09-07 06:29:00,61.7,60.8,30.08,SSW,200,0.0,1.0,97,0.00,,,0.00,Wunderground v.1.15,2013-09-07 11:29:00,
2013-09-07 06:34:00,61.7,60.8,30.08,SSW,200,0.0,1.0,97,0.00,,,0.00,Wunderground v.1.15,2013-09-07 11:34:00,
2013-09-07 06:39:00,61.8,60.9,30.08,SSW,201,0.0,1.0,97,0.00,,,0.00,Wunderground v.1.15,2013-09-07 11:39:00,
2013-09-07 06:45:00,61.8,60.9,30.08,SSW,200,0.0,1.0,97,0.00,,,0.00,Wunderground v.1.15,2013-09-07 11:45:00,
2013-09-07 06:51:00,61.9,61.0,30.08,SSW,200,0.0,1.0,97,0.00,,,0.00,Wunderground v.1.15,2013-09-07 11:51:00,
2013-09-07 06:56:00,62.0,61.1,30.08,SSW,200,0.0,1.0,97,0.00,,,0.00,Wunderground v.1.15,2013-09-07 11:56:00,
2013-09-07 07:02:00,62.0,61.1,30.09,SSW,201,0.0,1.0,97,0.00,,,0.00,Wunderground v.1.15,2013-09-07 12:02:00,
2013-09-07 07:07:00,62.1,61.2,30.09,SSW,200,0.0,1.0,97,0.00,,,0.00,Wunderground v.1.15,2013-09-07 12:07:00,
2013-09-07 07:12:00,62.3,61.4,30.09,SSW,200,0.0,1.0,97,0.00,,,0.00,Wunderground v.1.15,2013-09-07 12:12:00,
2013-09-07 07:18:00,62.5,61.6,30.10,SSW,200,0.0,1.0,97,0.00,,,0.00,Wunderground v.1.15,2013-09-07 12:18:00,
2013-09-07 07:23:00,62.5,61.6,30.09,SSW,201,0.0,1.0,97,0.00,,,0.00,Wunderground v.1.15,2013-09-07 12:23:00,
2013-09-07 07:29:00,62.3,61.1,30.09,SSW,200,0.0,1.0,96,0.00,,,0.00,Wunderground v.1.15,2013-09-07 12:29:00,
2013-09-07 07:34:00,62.4,61.2,30.09,SSW,200,0.0,1.0,96,0.00,,,0.00,Wunderground v.1.15,2013-09-07 12:34:00,
2013-09-07 07:39:00,62.5,61.3,30.09,SSW,201,0.0,1.0,96,0.00,,,0.00,Wunderground v.1.15,2013-09-07 12:39:00,
2013-09-07 07:45:00,62.8,61.9,30.09,SSW,201,0.0,1.0,97,0.00,,,0.00,Wunderground v.1.15,2013-09-07 12:45:00,
2013-09-07 07:50:00,63.2,62.3,30.09,SSW,200,0.0,1.0,97,0.00,,,0.00,Wunderground v.1.15,2013-09-07 12:50:00,
2013-09-07 07:55:00,63.5,62.3,30.09,SSW,201,0.0,1.0,96,0.00,,,0.00,Wunderground v.1.15,2013-09-07 12:55:00,
2013-09-07 08:01:00,63.9,62.7,30.09,SSW,200,0.0,1.0,96,0.00,,,0.00,Wunderground v.1.15,2013-09-07 13:01:00,
2013-09-07 08:06:00,64.3,63.1,30.09,SSW,200,0.0,1.0,96,0.00,,,0.00,Wunderground v.1.15,2013-09-07 13:06:00,
2013-09-07 08:11:00,64.7,63.5,30.09,WNW,285,0.0,1.0,96,0.00,,,0.00,Wunderground v.1.15,2013-09-07 13:11:00,
2013-09-07 08:17:00,64.9,63.7,30.09,WNW,290,0.0,1.0,96,0.00,,,0.00,Wunderground v.1.15,2013-09-07 13:17:00,
2013-09-07 08:22:00,65.2,63.7,30.09,NW,325,0.0,1.0,95,0.00,,,0.00,Wunderground v.1.15,2013-09-07 13:22:00,
2013-09-07 08:27:00,65.5,64.0,30.09,NW,318,0.0,1.0,95,0.00,,,0.00,Wunderground v.1.15,2013-09-07 13:27:00,
2013-09-07 08:33:00,65.8,64.0,30.09,NW,325,0.0,1.0,94,0.00,,,0.00,Wunderground v.1.15,2013-09-07 13:33:00,
2013-09-07 08:38:00,66.2,64.4,30.09,North,349,0.0,1.0,94,0.00,,,0.00,Wunderground v.1.15,2013-09-07 13:38:00,
2013-09-07 08:44:00,66.8,64.7,30.09,West,276,0.0,1.0,93,0.00,,,0.00,Wunderground v.1.15,2013-09-07 13:44:00,
2013-09-07 08:49:00,67.3,65.2,30.09,NW,313,0.0,1.0,93,0.00,,,0.00,Wunderground v.1.15,2013-09-07 13:49:00,
2013-09-07 08:54:00,67.9,65.2,30.09,North,352,0.0,1.0,91,0.00,,,0.00,Wunderground v.1.15,2013-09-07 13:54:00,
2013-09-07 09:00:00,68.4,65.4,30.09,North,358,0.0,1.0,90,0.00,,,0.00,Wunderground v.1.15,2013-09-07 14:00:00,
2013-09-07 09:05:00,68.9,65.5,30.09,North,358,0.0,1.0,89,0.00,,,0.00,Wunderground v.1.15,2013-09-07 14:05:00,
2013-09-07 09:10:00,69.5,66.1,30.09,WNW,294,0.0,2.0,89,0.00,,,0.00,Wunderground v.1.15,2013-09-07 14:10:00,
2013-09-07 09:16:00,69.9,66.8,30.09,NE,55,1.0,2.0,90,0.00,,,0.00,Wunderground v.1.15,2013-09-07 14:16:00,
2013-09-07 09:22:00,70.5,67.1,30.09,NE,51,0.0,1.0,89,0.00,,,0.00,Wunderground v.1.15,2013-09-07 14:22:00,
2013-09-07 09:27:00,71.0,66.9,30.09,NW,313,0.0,1.0,87,0.00,,,0.00,Wunderground v.1.15,2013-09-07 14:27:00,
2013-09-07 09:33:00,71.4,67.3,30.10,ENE,64,0.0,2.0,87,0.00,,,0.00,Wunderground v.1.15,2013-09-07 14:33:00,
2013-09-07 09:39:00,71.9,67.8,30.10,North,10,1.0,2.0,87,0.00,,,0.00,Wunderground v.1.15,2013-09-07 14:39:00,
2013-09-07 09:45:00,72.4,67.6,30.10,NNE,13,1.0,2.0,85,0.00,,,0.00,Wunderground v.1.15,2013-09-07 14:45:00,
2013-09-07 09:50:00,72.9,68.1,30.10,WNW,300,1.0,1.0,85,0.00,,,0.00,Wunderground v.1.15,2013-09-07 14:50:00,
2013-09-07 09:55:00,73.3,67.8,30.10,WNW,289,1.0,2.0,83,0.00,,,0.00,Wunderground v.1.15,2013-09-07 14:55:00,
2013-09-07 10:00:00,73.7,68.2,30.10,ENE,71,1.0,1.0,83,0.00,,,0.00,Wunderground v.1.15,2013-09-07 15:00:00,
2013-09-07 10:06:00,74.4,68.9,30.09,NNW,347,0.0,1.0,83,0.00,,,0.00,Wunderground v.1.15,2013-09-07 15:06:00,
2013-09-07 10:11:00,75.0,68.4,30.09,ENE,74,1.0,1.0,80,0.00,,,0.00,Wunderground v.1.15,2013-09-07 15:11:00,
2013-09-07 10:16:00,75.5,69.3,30.09,North,349,1.0,1.0,81,0.00,,,0.00,Wunderground v.1.15,2013-09-07 15:16:00,
2013-09-07 10:22:00,76.1,69.8,30.09,North,358,1.0,1.0,81,0.00,,,0.00,Wunderground v.1.15,2013-09-07 15:22:00,
2013-09-07 10:27:00,76.9,69.5,30.09,WNW,299,1.0,2.0,78,0.00,,,0.00,Wunderground v.1.15,2013-09-07 15:27:00,
2013-09-07 10:33:00,77.5,70.1,30.09,WNW,300,1.0,1.0,78,0.00,,,0.00,Wunderground v.1.15,2013-09-07 15:33:00,
2013-09-07 10:38:00,78.3,70.5,30.09,NW,306,1.0,3.0,77,0.00,,,0.00,Wunderground v.1.15,2013-09-07 15:38:00,
2013-09-07 10:44:00,78.5,70.3,30.09,East,85,1.0,4.0,76,0.00,,,0.00,Wunderground v.1.15,2013-09-07 15:44:00,
2013-09-07 10:49:00,78.8,69.8,30.08,East,99,2.0,4.0,74,0.00,,,0.00,Wunderground v.1.15,2013-09-07 15:49:00,
2013-09-07 10:55:00,79.3,70.3,30.08,NNW,327,1.0,2.0,74,0.00,,,0.00,Wunderground v.1.15,2013-09-07 15:55:00,
2013-09-07 11:01:00,80.0,71.4,30.08,ENE,62,1.0,2.0,75,0.00,,,0.00,Wunderground v.1.15,2013-09-07 16:01:00,
2013-09-07 11:06:00,80.4,70.9,30.08,NNE,15,1.0,3.0,73,0.00,,,0.00,Wunderground v.1.15,2013-09-07 16:06:00,
2013-09-07 11:11:00,81.1,71.6,30.08,ENE,72,1.0,2.0,73,0.00,,,0.00,Wunderground v.1.15,2013-09-07 16:11:00,
2013-09-07 11:17:00,81.5,70.3,30.08,ENE,64,1.0,5.0,69,0.00,,,0.00,Wunderground v.1.15,2013-09-07 16:17:00,
2013-09-07 11:22:00,81.9,71.2,30.07,WNW,297,2.0,4.0,70,0.00,,,0.00,Wunderground v.1.15,2013-09-07 16:22:00,
2013-09-07 11:28:00,82.0,71.2,30.07,WNW,286,2.0,5.0,70,0.00,,,0.00,Wunderground v.1.15,2013-09-07 16:28:00,
2013-09-07 11:33:00,82.2,71.0,30.07,NNW,339,3.0,5.0,69,0.00,,,0.00,Wunderground v.1.15,2013-09-07 16:33:00,
2013-09-07 11:38:00,82.7,71.9,30.07,NE,34,2.0,5.0,70,0.00,,,0.00,Wunderground v.1.15,2013-09-07 16:38:00,
2013-09-07 11:44:00,83.0,70.9,30.07,SSE,159,2.0,3.0,67,0.00,,,0.00,Wunderground v.1.15,2013-09-07 16:44:00,
2013-09-07 11:49:00,83.4,70.8,30.06,ESE,117,2.0,4.0,66,0.00,,,0.00,Wunderground v.1.15,2013-09-07 16:49:00,
2013-09-07 11:54:00,83.3,71.2,30.06,NW,316,2.0,3.0,67,0.00,,,0.00,Wunderground v.1.15,2013-09-07 16:54:00,
2013-09-07 12:00:00,83.4,70.4,30.06,WNW,297,2.0,2.0,65,0.00,,,0.00,Wunderground v.1.15,2013-09-07 17:00:00,
2013-09-07 12:05:00,83.7,70.7,30.05,NNW,328,3.0,4.0,65,0.00,,,0.00,Wunderground v.1.15,2013-09-07 17:05:00,
2013-09-07 12:10:00,83.9,71.3,30.05,NNW,332,2.0,4.0,66,0.00,,,0.00,Wunderground v.1.15,2013-09-07 17:10:00,
2013-09-07 12:16:00,84.1,71.5,30.05,East,82,3.0,4.0,66,0.00,,,0.00,Wunderground v.1.15,2013-09-07 17:16:00,
2013-09-07 12:21:00,84.6,72.0,30.05,NE,37,2.0,3.0,66,0.00,,,0.00,Wunderground v.1.15,2013-09-07 17:21:00,
2013-09-07 12:27:00,84.7,72.1,30.05,NE,34,2.0,3.0,66,0.00,,,0.00,Wunderground v.1.15,2013-09-07 17:27:00,
2013-09-07 12:32:00,85.0,71.9,30.05,ENE,65,2.0,3.0,65,0.00,,,0.00,Wunderground v.1.15,2013-09-07 17:32:00,
2013-09-07 12:37:00,85.0,71.5,30.04,North,351,2.0,4.0,64,0.00,,,0.00,Wunderground v.1.15,2013-09-07 17:37:00,
2013-09-07 12:43:00,85.5,73.3,30.04,ENE,71,2.0,3.0,67,0.00,,,0.00,Wunderground v.1.15,2013-09-07 17:43:00,
2013-09-07 12:48:00,85.1,71.5,30.04,NNW,342,2.0,3.0,64,0.00,,,0.00,Wunderground v.1.15,2013-09-07 17:48:00,
2013-09-07 12:53:00,85.2,71.6,30.04,North,9,3.0,4.0,64,0.00,,,0.00,Wunderground v.1.15,2013-09-07 17:53:00,
2013-09-07 12:59:00,85.5,71.5,30.03,SE,137,3.0,4.0,63,0.00,,,0.00,Wunderground v.1.15,2013-09-07 17:59:00,
2013-09-07 13:04:00,86.0,72.9,30.03,North,356,2.0,3.0,65,0.00,,,0.00,Wunderground v.1.15,2013-09-07 18:04:00,
2013-09-07 13:09:00,86.5,71.5,30.03,NNW,339,2.0,2.0,61,0.00,,,0.00,Wunderground v.1.15,2013-09-07 18:09:00,
2013-09-07 13:15:00,86.5,72.4,30.03,North,358,2.0,4.0,63,0.00,,,0.00,Wunderground v.1.15,2013-09-07 18:15:00,
2013-09-07 13:20:00,86.7,72.1,30.03,North,9,2.0,3.0,62,0.00,,,0.00,Wunderground v.1.15,2013-09-07 18:20:00,
2013-09-07 13:26:00,86.6,72.5,30.03,WNW,292,2.0,3.0,63,0.00,,,0.00,Wunderground v.1.15,2013-09-07 18:26:00,
2013-09-07 13:31:00,86.9,71.8,30.02,North,358,2.0,2.0,61,0.00,,,0.00,Wunderground v.1.15,2013-09-07 18:31:00,
2013-09-07 13:36:00,87.0,72.9,30.02,NNW,339,2.0,2.0,63,0.00,,,0.00,Wunderground v.1.15,2013-09-07 18:36:00,
2013-09-07 13:42:00,87.3,73.2,30.02,WNW,284,2.0,4.0,63,0.00,,,0.00,Wunderground v.1.15,2013-09-07 18:42:00,
2013-09-07 13:47:00,87.5,72.9,30.02,ENE,69,2.0,4.0,62,0.00,,,0.00,Wunderground v.1.15,2013-09-07 18:47:00,
2013-09-07 13:52:00,87.1,72.0,30.01,ENE,65,2.0,2.0,61,0.00,,,0.00,Wunderground v.1.15,2013-09-07 18:52:00,
2013-09-07 13:58:00,86.8,71.2,30.01,ENE,65,2.0,4.0,60,0.00,,,0.00,Wunderground v.1.15,2013-09-07 18:58:00,
2013-09-07 14:03:00,86.5,71.9,30.01,NNW,348,2.0,2.0,62,0.00,,,0.00,Wunderground v.1.15,2013-09-07 19:03:00,
2013-09-07 14:09:00,87.0,72.4,30.01,NE,47,2.0,3.0,62,0.00,,,0.00,Wunderground v.1.15,2013-09-07 19:09:00,
2013-09-07 14:14:00,87.2,73.1,30.01,North,1,2.0,3.0,63,0.00,,,0.00,Wunderground v.1.15,2013-09-07 19:14:00,
2013-09-07 14:19:00,87.8,73.6,30.00,NNW,347,2.0,2.0,63,0.00,,,0.00,Wunderground v.1.15,2013-09-07 19:19:00,
2013-09-07 14:25:00,88.0,72.4,30.00,North,349,1.0,4.0,60,0.00,,,0.00,Wunderground v.1.15,2013-09-07 19:25:00,
2013-09-07 14:30:00,87.8,72.2,30.00,NE,55,2.0,2.0,60,0.00,,,0.00,Wunderground v.1.15,2013-09-07 19:30:00,
2013-09-07 14:35:00,87.4,72.3,30.00,WNW,292,2.0,7.0,61,0.00,,,0.00,Wunderground v.1.15,2013-09-07 19:35:00,
2013-09-07 14:41:00,87.5,72.4,29.99,NNE,29,2.0,2.0,61,0.00,,,0.00,Wunderground v.1.15,2013-09-07 19:41:00,
2013-09-07 14:46:00,87.7,73.5,30.00,NE,39,2.0,3.0,63,0.00,,,0.00,Wunderground v.1.15,2013-09-07 19:46:00,
2013-09-07 14:51:00,87.9,72.8,29.99,North,8,2.0,2.0,61,0.00,,,0.00,Wunderground v.1.15,2013-09-07 19:51:00,
2013-09-07 14:57:00,87.8,71.7,29.99,NNE,23,2.0,4.0,59,0.00,,,0.00,Wunderground v.1.15,2013-09-07 19:57:00,
2013-09-07 15:02:00,87.7,72.6,29.99,NNW,347,2.0,2.0,61,0.00,,,0.00,Wunderground v.1.15,2013-09-07 20:02:00,
2013-09-07 15:08:00,87.5,72.4,29.99,NNW,337,2.0,6.0,61,0.00,,,0.00,Wunderground v.1.15,2013-09-07 20:08:00,
2013-09-07 15:13:00,87.2,71.6,29.98,NNE,26,2.0,3.0,60,0.00,,,0.00,Wunderground v.1.15,2013-09-07 20:13:00,
2013-09-07 15:19:00,87.3,71.7,29.98,North,354,2.0,6.0,60,0.00,,,0.00,Wunderground v.1.15,2013-09-07 20:19:00,
2013-09-07 15:24:00,87.3,71.7,29.98,NNW,335,2.0,3.0,60,0.00,,,0.00,Wunderground v.1.15,2013-09-07 20:24:00,
2013-09-07 15:29:00,87.6,72.5,29.98,North,10,2.0,2.0,61,0.00,,,0.00,Wunderground v.1.15,2013-09-07 20:29:00,
2013-09-07 15:35:00,87.5,71.4,29.98,NE,38,2.0,2.0,59,0.00,,,0.00,Wunderground v.1.15,2013-09-07 20:35:00,
2013-09-07 15:41:00,87.5,72.9,29.98,North,353,2.0,2.0,62,0.00,,,0.00,Wunderground v.1.15,2013-09-07 20:41:00,
2013-09-07 15:46:00,87.2,71.1,29.98,ENE,58,2.0,3.0,59,0.00,,,0.00,Wunderground v.1.15,2013-09-07 20:46:00,
2013-09-07 15:51:00,87.2,72.6,29.98,NE,51,2.0,2.0,62,0.00,,,0.00,Wunderground v.1.15,2013-09-07 20:51:00,
2013-09-07 15:57:00,87.1,72.0,29.98,ENE,77,2.0,3.0,61,0.00,,,0.00,Wunderground v.1.15,2013-09-07 20:57:00,
2013-09-07 16:02:00,87.4,72.8,29.98,NE,39,1.0,1.0,62,0.00,,,0.00,Wunderground v.1.15,2013-09-07 21:02:00,
2013-09-07 16:08:00,87.7,71.6,29.98,North,4,1.0,4.0,59,0.00,,,0.00,Wunderground v.1.15,2013-09-07 21:08:00,
2013-09-07 16:13:00,87.4,71.3,29.98,ENE,58,1.0,4.0,59,0.00,,,0.00,Wunderground v.1.15,2013-09-07 21:13:00,
2013-09-07 16:19:00,86.9,71.8,29.98,ENE,60,2.0,4.0,61,0.00,,,0.00,Wunderground v.1.15,2013-09-07 21:19:00,
2013-09-07 16:24:00,86.9,72.8,29.98,NE,48,1.0,2.0,63,0.00,,,0.00,Wunderground v.1.15,2013-09-07 21:24:00,
2013-09-07 16:29:00,86.9,72.3,29.97,North,10,1.0,1.0,62,0.00,,,0.00,Wunderground v.1.15,2013-09-07 21:29:00,
2013-09-07 16:35:00,86.7,71.6,29.97,ENE,58,1.0,2.0,61,0.00,,,0.00,Wunderground v.1.15,2013-09-07 21:35:00,
2013-09-07 16:40:00,86.1,72.0,29.97,NNW,330,1.0,1.0,63,0.00,,,0.00,Wunderground v.1.15,2013-09-07 21:40:00,
2013-09-07 16:46:00,85.6,72.0,29.97,NNE,16,1.0,2.0,64,0.00,,,0.00,Wunderground v.1.15,2013-09-07 21:46:00,
2013-09-07 16:51:00,85.5,72.4,29.97,ENE,61,1.0,1.0,65,0.00,,,0.00,Wunderground v.1.15,2013-09-07 21:51:00,
2013-09-07 16:57:00,85.2,71.6,29.97,NNE,29,1.0,1.0,64,0.00,,,0.00,Wunderground v.1.15,2013-09-07 21:57:00,
2013-09-07 17:02:00,84.8,72.2,29.97,ENE,62,1.0,2.0,66,0.00,,,0.00,Wunderground v.1.15,2013-09-07 22:02:00,
2013-09-07 17:08:00,84.4,71.8,29.97,East,93,1.0,2.0,66,0.00,,,0.00,Wunderground v.1.15,2013-09-07 22:08:00,
2013-09-07 17:13:00,84.1,72.4,29.97,ENE,61,1.0,1.0,68,0.00,,,0.00,Wunderground v.1.15,2013-09-07 22:13:00,
2013-09-07 17:18:00,83.8,72.1,29.97,NE,47,1.0,1.0,68,0.00,,,0.00,Wunderground v.1.15,2013-09-07 22:18:00,
2013-09-07 17:24:00,83.4,71.7,29.97,ENE,65,1.0,2.0,68,0.00,,,0.00,Wunderground v.1.15,2013-09-07 22:24:00,
2013-09-07 17:29:00,83.3,72.1,29.96,NNE,13,1.0,1.0,69,0.00,,,0.00,Wunderground v.1.15,2013-09-07 22:29:00,
2013-09-07 17:35:00,83.2,72.4,29.97,NE,56,0.0,1.0,70,0.00,,,0.00,Wunderground v.1.15,2013-09-07 22:35:00,
2013-09-07 17:40:00,82.9,72.1,29.97,ENE,60,1.0,1.0,70,0.00,,,0.00,Wunderground v.1.15,2013-09-07 22:40:00,
2013-09-07 17:46:00,82.8,72.4,29.97,ENE,60,0.0,1.0,71,0.00,,,0.00,Wunderground v.1.15,2013-09-07 22:46:00,
2013-09-07 17:51:00,82.5,71.7,29.97,ENE,60,0.0,1.0,70,0.00,,,0.00,Wunderground v.1.15,2013-09-07 22:51:00,
2013-09-07 17:57:00,82.3,72.0,29.96,East,79,1.0,1.0,71,0.00,,,0.00,Wunderground v.1.15,2013-09-07 22:57:00,
2013-09-07 18:02:00,81.9,72.0,29.96,East,79,1.0,1.0,72,0.00,,,0.00,Wunderground v.1.15,2013-09-07 23:02:00,
2013-09-07 18:08:00,81.5,72.4,29.96,ENE,74,1.0,1.0,74,0.00,,,0.00,Wunderground v.1.15,2013-09-07 23:08:00,
2013-09-07 18:13:00,81.3,72.2,29.96,ENE,75,1.0,1.0,74,0.00,,,0.00,Wunderground v.1.15,2013-09-07 23:13:00,
2013-09-07 18:18:00,81.1,72.4,29.96,ENE,75,1.0,1.0,75,0.00,,,0.00,Wunderground v.1.15,2013-09-07 23:18:00,
2013-09-07 18:24:00,80.9,72.2,29.97,ENE,75,1.0,1.0,75,0.00,,,0.00,Wunderground v.1.15,2013-09-07 23:24:00,
2013-09-07 18:29:00,80.7,72.4,29.97,ENE,75,1.0,1.0,76,0.00,,,0.00,Wunderground v.1.15,2013-09-07 23:29:00,
2013-09-07 18:35:00,80.5,72.2,29.97,ENE,75,0.0,1.0,76,0.00,,,0.00,Wunderground v.1.15,2013-09-07 23:35:00,
2013-09-07 18:40:00,80.3,72.0,29.97,ENE,75,0.0,1.0,76,0.00,,,0.00,Wunderground v.1.15,2013-09-07 23:40:00,
2013-09-07 18:45:00,79.9,72.0,29.97,ENE,75,0.0,1.0,77,0.00,,,0.00,Wunderground v.1.15,2013-09-07 23:45:00,
2013-09-07 18:51:00,79.6,72.1,29.97,ENE,75,0.0,1.0,78,0.00,,,0.00,Wunderground v.1.15,2013-09-07 23:51:00,
2013-09-07 18:56:00,79.3,71.8,29.97,NNE,33,0.0,1.0,78,0.00,,,0.00,Wunderground v.1.15,2013-09-07 23:56:00,
2013-09-07 19:01:00,79.0,71.6,29.97,NNE,22,0.0,1.0,78,0.00,,,0.00,Wunderground v.1.15,2013-09-08 00:01:00,
2013-09-07 19:07:00,78.9,71.5,29.97,North,1,0.0,1.0,78,0.00,,,0.00,Wunderground v.1.15,2013-09-08 00:07:00,
2013-09-07 19:12:00,78.9,71.5,29.97,North,3,0.0,1.0,78,0.00,,,0.00,Wunderground v.1.15,2013-09-08 00:12:00,
2013-09-07 19:17:00,78.7,71.3,29.97,North,9,0.0,1.0,78,0.00,,,0.00,Wunderground v.1.15,2013-09-08 00:17:00,
2013-09-07 19:23:00,78.4,71.3,29.98,North,9,0.0,1.0,79,0.00,,,0.00,Wunderground v.1.15,2013-09-08 00:23:00,
2013-09-07 19:28:00,78.0,71.3,29.98,NNE,12,0.0,1.0,80,0.00,,,0.00,Wunderground v.1.15,2013-09-08 00:28:00,
2013-09-07 19:34:00,77.8,71.1,29.98,NE,50,0.0,1.0,80,0.00,,,0.00,Wunderground v.1.15,2013-09-08 00:34:00,
2013-09-07 19:39:00,77.8,71.5,29.98,North,6,0.0,1.0,81,0.00,,,0.00,Wunderground v.1.15,2013-09-08 00:39:00,
2013-09-07 19:45:00,77.5,71.6,29.98,WNW,294,0.0,1.0,82,0.00,,,0.00,Wunderground v.1.15,2013-09-08 00:45:00,
2013-09-07 19:50:00,76.7,71.1,29.98,WNW,295,0.0,1.0,83,0.00,,,0.00,Wunderground v.1.15,2013-09-08 00:50:00,
2013-09-07 19:56:00,76.3,71.5,29.98,WNW,294,0.0,1.0,85,0.00,,,0.00,Wunderground v.1.15,2013-09-08 00:56:00,
2013-09-07 20:01:00,75.9,71.4,29.98,WNW,294,0.0,1.0,86,0.00,,,0.00,Wunderground v.1.15,2013-09-08 01:01:00,
2013-09-07 20:06:00,75.5,71.4,29.98,WNW,294,0.0,1.0,87,0.00,,,0.00,Wunderground v.1.15,2013-09-08 01:06:00,
2013-09-07 20:12:00,75.1,71.3,29.98,WNW,294,0.0,1.0,88,0.00,,,0.00,Wunderground v.1.15,2013-09-08 01:12:00,
2013-09-07 20:18:00,74.7,70.9,29.98,WNW,294,0.0,1.0,88,0.00,,,0.00,Wunderground v.1.15,2013-09-08 01:18:00,
2013-09-07 20:23:00,74.3,70.5,29.98,WNW,294,0.0,1.0,88,0.00,,,0.00,Wunderground v.1.15,2013-09-08 01:23:00,
2013-09-07 20:28:00,74.1,71.0,29.98,WNW,297,0.0,1.0,90,0.00,,,0.00,Wunderground v.1.15,2013-09-08 01:28:00,
2013-09-07 20:34:00,74.1,71.0,29.99,WNW,296,0.0,1.0,90,0.00,,,0.00,Wunderground v.1.15,2013-09-08 01:34:00,
2013-09-07 20:39:00,74.0,71.2,29.99,WNW,296,0.0,1.0,91,0.00,,,0.00,Wunderground v.1.15,2013-09-08 01:39:00,
2013-09-07 20:45:00,73.9,70.8,29.99,WNW,296,0.0,1.0,90,0.00,,,0.00,Wunderground v.1.15,2013-09-08 01:45:00,
2013-09-07 20:50:00,73.7,70.9,29.99,WNW,296,0.0,1.0,91,0.00,,,0.00,Wunderground v.1.15,2013-09-08 01:50:00,
2013-09-07 20:55:00,73.6,70.8,29.99,WNW,296,0.0,1.0,91,0.00,,,0.00,Wunderground v.1.15,2013-09-08 01:55:00,
2013-09-07 21:01:00,73.6,70.8,29.99,WNW,296,0.0,1.0,91,0.00,,,0.00,Wunderground v.1.15,2013-09-08 02:01:00,
2013-09-07 21:06:00,73.6,70.8,29.99,WNW,296,0.0,1.0,91,0.00,,,0.00,Wunderground v.1.15,2013-09-08 02:06:00,
2013-09-07 21:11:00,73.5,70.4,29.99,WNW,296,0.0,1.0,90,0.00,,,0.00,Wunderground v.1.15,2013-09-08 02:11:00,
2013-09-07 21:17:00,73.3,69.9,29.99,WNW,297,0.0,1.0,89,0.00,,,0.00,Wunderground v.1.15,2013-09-08 02:17:00,
2013-09-07 21:22:00,73.4,70.0,29.99,WNW,296,0.0,1.0,89,0.00,,,0.00,Wunderground v.1.15,2013-09-08 02:22:00,
2013-09-07 21:28:00,73.2,70.1,29.99,WNW,296,0.0,1.0,90,0.00,,,0.00,Wunderground v.1.15,2013-09-08 02:28:00,
2013-09-07 21:33:00,72.9,69.5,29.99,WNW,297,0.0,1.0,89,0.00,,,0.00,Wunderground v.1.15,2013-09-08 02:33:00,
2013-09-07 21:39:00,72.7,69.6,29.99,WNW,296,0.0,1.0,90,0.00,,,0.00,Wunderground v.1.15,2013-09-08 02:39:00,
2013-09-07 21:44:00,72.5,69.4,30.00,WNW,296,0.0,1.0,90,0.00,,,0.00,Wunderground v.1.15,2013-09-08 02:44:00,
2013-09-07 21:49:00,72.2,69.1,30.00,WNW,296,0.0,1.0,90,0.00,,,0.00,Wunderground v.1.15,2013-09-08 02:49:00,
2013-09-07 21:55:00,72.0,69.2,30.00,WNW,296,0.0,1.0,91,0.00,,,0.00,Wunderground v.1.15,2013-09-08 02:55:00,
2013-09-07 22:01:00,71.8,69.3,30.00,WNW,303,0.0,1.0,92,0.00,,,0.00,Wunderground v.1.15,2013-09-08 03:01:00,
2013-09-07 22:07:00,71.6,69.2,30.00,NW,304,0.0,1.0,92,0.00,,,0.00,Wunderground v.1.15,2013-09-08 03:07:00,
2013-09-07 22:12:00,71.4,69.0,29.99,North,354,0.0,1.0,92,0.00,,,0.00,Wunderground v.1.15,2013-09-08 03:12:00,
2013-09-07 22:18:00,71.1,69.0,29.99,NNE,30,0.0,1.0,93,0.00,,,0.00,Wunderground v.1.15,2013-09-08 03:18:00,
2013-09-07 22:23:00,70.9,68.8,29.99,NNE,29,0.0,1.0,93,0.00,,,0.00,Wunderground v.1.15,2013-09-08 03:23:00,
2013-09-07 22:28:00,70.6,68.5,29.99,NNE,29,0.0,1.0,93,0.00,,,0.00,Wunderground v.1.15,2013-09-08 03:28:00,
2013-09-07 22:34:00,70.6,68.2,29.99,NNE,32,0.0,1.0,92,0.00,,,0.00,Wunderground v.1.15,2013-09-08 03:34:00,
2013-09-07 22:39:00,71.0,67.9,29.99,NNE,30,0.0,1.0,90,0.00,,,0.00,Wunderground v.1.15,2013-09-08 03:39:00,
2013-09-07 22:45:00,71.0,68.2,29.99,NE,37,0.0,1.0,91,0.00,,,0.00,Wunderground v.1.15,2013-09-08 03:45:00,
2013-09-07 22:50:00,70.6,68.2,29.99,NE,37,0.0,1.0,92,0.00,,,0.00,Wunderground v.1.15,2013-09-08 03:50:00,
2013-09-07 22:55:00,70.4,68.0,30.00,NE,39,0.0,1.0,92,0.00,,,0.00,Wunderground v.1.15,2013-09-08 03:55:00,
2013-09-07 23:01:00,70.3,67.9,30.00,NE,35,0.0,1.0,92,0.00,,,0.00,Wunderground v.1.15,2013-09-08 04:01:00,
2013-09-07 23:03:00,70.1,67.3,30.00,NE,36,0.0,1.0,91,0.00,,,0.00,Wunderground v.1.15,2013-09-08 04:03:00,
2013-09-07 23:09:00,70.0,67.6,30.00,NE,36,0.0,1.0,92,0.00,,,0.00,Wunderground v.1.15,2013-09-08 04:09:00,
2013-09-07 23:14:00,69.8,67.4,30.00,NE,36,0.0,1.0,92,0.00,,,0.00,Wunderground v.1.15,2013-09-08 04:14:00,
2013-09-07 23:20:00,69.6,67.5,29.99,NE,36,0.0,1.0,93,0.00,,,0.00,Wunderground v.1.15,2013-09-08 04:20:00,
2013-09-07 23:23:00,69.5,67.4,29.99,NE,37,0.0,1.0,93,0.00,,,0.00,Wunderground v.1.15,2013-09-08 04:23:00,
2013-09-07 23:26:00,69.6,67.8,30.00,NE,39,0.0,1.0,94,0.00,,,0.00,Wunderground v.1.15,2013-09-08 04:26:00,
2013-09-07 23:32:00,69.6,67.8,29.99,NE,39,0.0,1.0,94,0.00,,,0.00,Wunderground v.1.15,2013-09-08 04:32:00,
2013-09-07 23:37:00,69.8,68.3,29.99,NE,39,0.0,1.0,95,0.00,,,0.00,Wunderground v.1.15,2013-09-08 04:37:00,
2013-09-07 23:43:00,70.1,68.6,29.99,NE,39,0.0,1.0,95,0.00,,,0.00,Wunderground v.1.15,2013-09-08 04:43:00,
2013-09-07 23:48:00,70.2,68.4,29.99,NE,39,0.0,1.0,94,0.00,,,0.00,Wunderground v.1.15,2013-09-08 04:48:00,
2013-09-07 23:55:00,70.1,68.0,29.99,NE,39,0.0,1.0,93,0.00,,,0.00,Wunderground v.1.15,2013-09-08 04:55:00,